Greenville-Spartanburg International Airport (GSP)

 

Airport Diagram
Current Weather/Forecast (VFR Conditions)
METAR KGSP 020853Z AUTO 00000KT 10SM CLR 06/01 A3003 RMK AO2 SLP168 T00610006 55001
TAF KGSP 020529Z 0206/0306 34006KT P6SM FEW250 FM021700 30006KT P6SM SKC FM030200 33003KT P6SM SKC

All Charts
General
Chart Name Download
AIRPORT DIAGRAM
TAKEOFF MINIMUMS
ALTERNATE MINIMUMS

Departures
Chart Name Download
BIMMR TWO (RNAV)
BWALL TWO (RNAV)

Arrivals
Chart Name Download
JUNNR THREE (RNAV)
MCHLN TWO (RNAV)
RCTOR TWO (RNAV)
WORXS TWO (RNAV)

Approaches
Chart Name Download
ILS OR LOC RWY 04
ILS OR LOC RWY 22
ILS RWY 04 (SA CAT I)
ILS RWY 04 (CAT II - III)
RNAV (GPS) RWY 04
RNAV (GPS) RWY 22


Inbound Traffic (Arrivals)

No inbound traffic.


Outbound Traffic (Departures)

No outbound traffic.